When you browse on this site, cookies collect data to enhance your experience and personalize the content and advertising you see.
Visit our Privacy Policy to learn more. By continuing to use the site, you agree to this use of cookies and data.

Stündliche Wetter Jaltocán

Heute, 12 Juli, Sonntag

Zeit Temperatur Niederschläge Wind Luftdruck Luftfeuchtigkeit
00:00 +25°C° 0 mm 1 m/S 747 mmHg 92%
01:00 +25°C° 0 mm 1 m/S 747 mmHg 91%
02:00 +25°C° 0 mm 1 m/S 746 mmHg 91%
03:00 +24°C° 0 mm 1 m/S 746 mmHg 92%
04:00 +24°C° 0 mm 1 m/S 746 mmHg 92%
05:00 +24°C° 0 mm 1 m/S 746 mmHg 93%
06:00 +26°C° 0 mm 1 m/S 746 mmHg 85%
07:00 +26°C° 0 mm 0 m/S 747 mmHg 77%
08:00 +29°C° 0 mm 0 m/S 747 mmHg 68%
09:00 +32°C° 0 mm 1 m/S 746 mmHg 63%
10:00 +33°C° 0 mm 1 m/S 746 mmHg 57%
11:00 +36°C° 0 mm 2 m/S 746 mmHg 51%
12:00 +36°C° 0 mm 2 m/S 745 mmHg 49%
13:00 +37°C° 0 mm 2 m/S 745 mmHg 46%
14:00 +37°C° 0 mm 3 m/S 744 mmHg 44%
15:00 +36°C° 0 mm 3 m/S 744 mmHg 49%
16:00 +35°C° 0 mm 3 m/S 744 mmHg 53%
17:00 +34°C° 0 mm 3 m/S 744 mmHg 58%
18:00 +31°C° 0 mm 2 m/S 745 mmHg 66%
19:00 +29°C° 0 mm 2 m/S 745 mmHg 74%
20:00 +27°C° 0 mm 2 m/S 746 mmHg 82%
21:00 +27°C° 0 mm 2 m/S 746 mmHg 82%
22:00 +26°C° 0 mm 2 m/S 746 mmHg 83%
23:00 +26°C° 0 mm 1 m/S 746 mmHg 84%

Morgen, 13 Juli, Montag

Zeit Temperatur Niederschläge Wind Luftdruck Luftfeuchtigkeit
00:00 +25°C° 0 mm 1 m/S 746 mmHg 83%
01:00 +25°C° 0 mm 1 m/S 745 mmHg 83%
02:00 +25°C° 0 mm 1 m/S 745 mmHg 82%
03:00 +25°C° 0 mm 1 m/S 745 mmHg 82%
04:00 +24°C° 0 mm 1 m/S 745 mmHg 82%
05:00 +24°C° 0 mm 1 m/S 745 mmHg 82%
06:00 +27°C° 0 mm 1 m/S 746 mmHg 75%
07:00 +27°C° 0 mm 0 m/S 746 mmHg 68%
08:00 +29°C° 0 mm 0 m/S 746 mmHg 61%
09:00 +33°C° 0 mm 1 m/S 746 mmHg 56%
10:00 +34°C° 0 mm 1 m/S 745 mmHg 52%
11:00 +36°C° 0 mm 2 m/S 745 mmHg 48%
12:00 +37°C° 0 mm 2 m/S 745 mmHg 46%
13:00 +37°C° 0 mm 3 m/S 744 mmHg 43%
14:00 +38°C° 0 mm 3 m/S 743 mmHg 41%
15:00 +37°C° 0 mm 3 m/S 743 mmHg 46%
16:00 +36°C° 0 mm 3 m/S 744 mmHg 50%
17:00 +35°C° 0 mm 3 m/S 744 mmHg 55%
18:00 +33°C° 0 mm 3 m/S 744 mmHg 65%
19:00 +30°C° 0 mm 2 m/S 745 mmHg 74%
20:00 +27°C° 0 mm 2 m/S 746 mmHg 83%
21:00 +27°C° 0 mm 2 m/S 746 mmHg 84%
22:00 +26°C° 0 mm 2 m/S 746 mmHg 84%
23:00 +26°C° 0 mm 1 m/S 746 mmHg 84%

übermorgen, 14 Juli, Dienstag

Zeit Temperatur Niederschläge Wind Luftdruck Luftfeuchtigkeit
00:00 +25°C° 0 mm 1 m/S 745 mmHg 83%
01:00 +25°C° 0 mm 1 m/S 745 mmHg 83%
02:00 +25°C° 0 mm 1 m/S 744 mmHg 82%
03:00 +25°C° 0 mm 1 m/S 744 mmHg 83%
04:00 +24°C° 0 mm 1 m/S 744 mmHg 83%
05:00 +24°C° 0 mm 1 m/S 744 mmHg 84%
06:00 +26°C° 0 mm 1 m/S 745 mmHg 78%
07:00 +28°C° 0 mm 1 m/S 745 mmHg 72%
08:00 +31°C° 0 mm 1 m/S 746 mmHg 66%
09:00 +32°C° 0 mm 1 m/S 745 mmHg 61%
10:00 +34°C° 0 mm 2 m/S 745 mmHg 57%
11:00 +36°C° 0 mm 2 m/S 745 mmHg 53%
12:00 +36°C° 0 mm 2 m/S 744 mmHg 51%
13:00 +37°C° 0 mm 2 m/S 744 mmHg 49%
14:00 +37°C° 0 mm 2 m/S 743 mmHg 48%
15:00 +36°C° 0 mm 3 m/S 743 mmHg 51%
16:00 +36°C° 0 mm 3 m/S 743 mmHg 55%
17:00 +35°C° 0 mm 3 m/S 743 mmHg 58%
18:00 +33°C° 0.2 mm 3 m/S 744 mmHg 67%
19:00 +30°C° 0.2 mm 2 m/S 745 mmHg 76%
20:00 +28°C° 0.2 mm 2 m/S 745 mmHg 85%
21:00 +27°C° 0 mm 2 m/S 745 mmHg 88%
22:00 +27°C° 0 mm 1 m/S 745 mmHg 90%
23:00 +26°C° 0 mm 1 m/S 745 mmHg 92%

15 Juli, Mittwoch

Zeit Temperatur Niederschläge Wind Luftdruck Luftfeuchtigkeit
00:00 +26°C° 0 mm 1 m/S 745 mmHg 92%
01:00 +26°C° 0 mm 1 m/S 745 mmHg 92%
02:00 +25°C° 0 mm 1 m/S 744 mmHg 93%
03:00 +25°C° 0 mm 1 m/S 744 mmHg 93%
04:00 +25°C° 0 mm 1 m/S 744 mmHg 94%
05:00 +22°C° 0 mm 0 m/S 744 mmHg 94%
06:00 +26°C° 0 mm 1 m/S 745 mmHg 89%
07:00 +28°C° 0 mm 1 m/S 745 mmHg 83%
08:00 +30°C° 0 mm 1 m/S 746 mmHg 77%
09:00 +31°C° 0.1 mm 1 m/S 745 mmHg 72%
10:00 +32°C° 0.1 mm 1 m/S 745 mmHg 67%
11:00 +34°C° 0.1 mm 2 m/S 745 mmHg 62%
12:00 +35°C° 0.1 mm 2 m/S 745 mmHg 60%
13:00 +35°C° 0.1 mm 2 m/S 744 mmHg 58%
14:00 +35°C° 0.1 mm 2 m/S 744 mmHg 57%
15:00 +35°C° 0.7 mm 2 m/S 744 mmHg 60%
16:00 +34°C° 0.7 mm 2 m/S 744 mmHg 62%
17:00 +34°C° 0.7 mm 2 m/S 744 mmHg 65%
18:00 +31°C° 0.1 mm 2 m/S 744 mmHg 72%
19:00 +29°C° 0.1 mm 2 m/S 745 mmHg 79%
20:00 +27°C° 0.1 mm 1 m/S 746 mmHg 87%
21:00 +27°C° 0 mm 1 m/S 746 mmHg 89%
22:00 +26°C° 0 mm 1 m/S 746 mmHg 91%
23:00 +26°C° 0 mm 1 m/S 746 mmHg 93%

16 Juli, Donnerstag

Zeit Temperatur Niederschläge Wind Luftdruck Luftfeuchtigkeit
00:00 +25°C° 0 mm 1 m/S 746 mmHg 94%
01:00 +25°C° 0 mm 1 m/S 745 mmHg 94%
02:00 +25°C° 0 mm 1 m/S 745 mmHg 95%
03:00 +23°C° 0 mm 0 m/S 745 mmHg 95%
04:00 +22°C° 0 mm 0 m/S 745 mmHg 95%
05:00 +22°C° 0 mm 0 m/S 745 mmHg 96%
06:00 +24°C° 0 mm 0 m/S 746 mmHg 90%
07:00 +27°C° 0 mm 1 m/S 746 mmHg 84%
08:00 +29°C° 0 mm 1 m/S 747 mmHg 79%
09:00 +31°C° 0.1 mm 1 m/S 747 mmHg 71%
10:00 +33°C° 0.1 mm 1 m/S 746 mmHg 63%
11:00 +35°C° 0.1 mm 1 m/S 746 mmHg 56%
12:00 +36°C° 0.2 mm 2 m/S 746 mmHg 55%
13:00 +36°C° 0.2 mm 2 m/S 745 mmHg 55%
14:00 +36°C° 0.2 mm 2 m/S 745 mmHg 55%
15:00 +35°C° 0.8 mm 2 m/S 745 mmHg 62%
16:00 +33°C° 0.8 mm 3 m/S 745 mmHg 68%
17:00 +31°C° 0.8 mm 3 m/S 745 mmHg 74%
18:00 +30°C° 0.1 mm 2 m/S 745 mmHg 80%
19:00 +28°C° 0.1 mm 2 m/S 746 mmHg 85%
20:00 +27°C° 0.1 mm 1 m/S 747 mmHg 90%
21:00 +26°C° 0 mm 1 m/S 747 mmHg 91%
22:00 +26°C° 0 mm 1 m/S 747 mmHg 93%
23:00 +25°C° 0 mm 1 m/S 747 mmHg 94%

17 Juli, Freitag

Zeit Temperatur Niederschläge Wind Luftdruck Luftfeuchtigkeit
00:00 +25°C° 0 mm 1 m/S 747 mmHg 94%
01:00 +25°C° 0 mm 1 m/S 747 mmHg 94%
02:00 +25°C° 0 mm 1 m/S 746 mmHg 94%
03:00 +23°C° 0 mm 0 m/S 747 mmHg 94%
04:00 +22°C° 0 mm 0 m/S 747 mmHg 94%
05:00 +22°C° 0 mm 0 m/S 747 mmHg 94%
06:00 +24°C° 0.2 mm 0 m/S 747 mmHg 89%
07:00 +26°C° 0.2 mm 0 m/S 748 mmHg 84%
08:00 +27°C° 0.2 mm 0 m/S 748 mmHg 78%
09:00 +31°C° 0.3 mm 1 m/S 748 mmHg 72%
10:00 +32°C° 0.3 mm 2 m/S 747 mmHg 65%
11:00 +34°C° 0.3 mm 2 m/S 747 mmHg 59%
12:00 +34°C° 0.7 mm 2 m/S 746 mmHg 60%
13:00 +34°C° 0.7 mm 2 m/S 746 mmHg 61%
14:00 +34°C° 0.7 mm 2 m/S 745 mmHg 63%
15:00 +32°C° 1.3 mm 2 m/S 745 mmHg 69%
16:00 +31°C° 1.3 mm 2 m/S 745 mmHg 75%
17:00 +30°C° 1.3 mm 2 m/S 745 mmHg 81%
18:00 +28°C° 2.4 mm 2 m/S 745 mmHg 85%
19:00 +27°C° 2.4 mm 2 m/S 746 mmHg 89%
20:00 +26°C° 2.4 mm 2 m/S 746 mmHg 92%
21:00 +26°C° 0.1 mm 1 m/S 747 mmHg 92%
22:00 +25°C° 0.1 mm 1 m/S 747 mmHg 92%
23:00 +25°C° 0.1 mm 1 m/S 747 mmHg 92%
Mehr zeigen